Time,TemperatureF,DewpointF,PressureIn,WindDirection,WindDirectionDegrees,WindSpeedMPH,WindSpeedGustMPH,Humidity,HourlyPrecipIn,Conditions,Clouds,dailyrainin,SoftwareType,DateUTC
2013-02-14 00:02:00,40.0,39.0,29.80,West,270,1.0,3.0,96,-99.99,,,-99.99,,2013-02-14 05:02:00,
2013-02-14 00:22:00,40.0,39.0,29.80,WSW,258,0.0,4.0,96,-99.99,,,-99.99,,2013-02-14 05:22:00,
2013-02-14 00:32:00,39.0,38.0,29.81,South,189,1.0,7.0,97,-99.99,,,-99.99,,2013-02-14 05:32:00,
2013-02-14 00:42:00,39.0,38.0,29.81,South,189,1.0,7.0,97,-99.99,,,-99.99,,2013-02-14 05:42:00,
2013-02-14 00:52:00,39.0,38.0,29.82,South,187,0.0,3.0,97,-99.99,,,-99.99,,2013-02-14 05:52:00,
2013-02-14 01:02:00,39.0,38.0,29.83,West,277,3.0,5.0,98,-99.99,,,-99.99,,2013-02-14 06:02:00,
2013-02-14 01:11:00,39.0,38.0,29.84,WSW,241,2.0,4.0,98,-99.99,,,-99.99,,2013-02-14 06:11:00,
2013-02-14 01:21:00,39.0,38.0,29.84,WSW,241,2.0,4.0,98,-99.99,,,-99.99,,2013-02-14 06:21:00,
2013-02-14 01:32:00,39.0,38.0,29.85,WSW,258,3.0,4.0,97,-99.99,,,-99.99,,2013-02-14 06:32:00,
2013-02-14 01:42:00,39.0,38.0,29.85,WSW,258,3.0,4.0,97,-99.99,,,-99.99,,2013-02-14 06:42:00,
2013-02-14 01:52:00,40.0,39.0,29.85,South,191,0.0,6.0,97,-99.99,,,-99.99,,2013-02-14 06:52:00,
2013-02-14 02:01:00,39.0,38.0,29.86,South,191,0.0,0.0,98,-99.99,,,-99.99,,2013-02-14 07:01:00,
2013-02-14 02:21:00,38.0,-14.0,29.87,South,191,0.0,0.0,10,-99.99,,,-99.99,,2013-02-14 07:21:00,
2013-02-14 02:32:00,37.0,37.0,29.87,SSW,210,0.0,0.0,100,-99.99,,,-99.99,,2013-02-14 07:32:00,
2013-02-14 02:42:00,37.0,37.0,29.87,SSW,210,0.0,0.0,100,-99.99,,,-99.99,,2013-02-14 07:42:00,
2013-02-14 02:52:00,36.0,36.0,29.88,SSW,207,0.0,2.0,100,-99.99,,,-99.99,,2013-02-14 07:52:00,
2013-02-14 03:01:00,36.0,36.0,29.88,SW,218,0.0,0.0,100,-99.99,,,-99.99,,2013-02-14 08:01:00,
2013-02-14 03:11:00,36.0,36.0,29.88,SW,218,0.0,0.0,100,-99.99,,,-99.99,,2013-02-14 08:11:00,
2013-02-14 03:21:00,35.0,35.0,29.89,SSW,210,0.0,0.0,100,-99.99,,,-99.99,,2013-02-14 08:21:00,
2013-02-14 03:32:00,35.0,35.0,29.89,South,184,0.0,4.0,100,-99.99,,,-99.99,,2013-02-14 08:32:00,
2013-02-14 03:43:00,35.0,35.0,29.89,South,184,0.0,4.0,100,-99.99,,,-99.99,,2013-02-14 08:43:00,
2013-02-14 03:52:00,35.0,35.0,29.89,WSW,248,2.0,4.0,100,-99.99,,,-99.99,,2013-02-14 08:52:00,
2013-02-14 04:02:00,35.0,35.0,29.90,WSW,249,0.0,0.0,100,-99.99,,,-99.99,,2013-02-14 09:02:00,
2013-02-14 04:11:00,35.0,35.0,29.90,WSW,249,0.0,0.0,100,-99.99,,,-99.99,,2013-02-14 09:11:00,
2013-02-14 04:21:00,36.0,36.0,29.90,WSW,249,0.0,0.0,100,-99.99,,,-99.99,,2013-02-14 09:21:00,
2013-02-14 04:32:00,34.0,34.0,29.90,WSW,249,0.0,0.0,100,-99.99,,,-99.99,,2013-02-14 09:32:00,
2013-02-14 04:42:00,34.0,34.0,29.90,WSW,249,0.0,0.0,100,-99.99,,,-99.99,,2013-02-14 09:42:00,
2013-02-14 04:52:00,33.0,33.0,29.91,North,349,0.0,4.0,100,-99.99,,,-99.99,,2013-02-14 09:52:00,
2013-02-14 05:02:00,32.0,32.0,29.91,SSE,155,0.0,0.0,100,-99.99,,,-99.99,,2013-02-14 10:02:00,
2013-02-14 05:11:00,32.0,32.0,29.92,SSE,155,0.0,0.0,100,-99.99,,,-99.99,,2013-02-14 10:11:00,
2013-02-14 05:21:00,32.0,32.0,29.92,SSE,155,0.0,0.0,100,-99.99,,,-99.99,,2013-02-14 10:21:00,
2013-02-14 05:32:00,31.0,31.0,29.92,East,89,1.0,3.0,100,-99.99,,,-99.99,,2013-02-14 10:32:00,
2013-02-14 05:42:00,31.0,31.0,29.92,East,89,1.0,3.0,100,-99.99,,,-99.99,,2013-02-14 10:42:00,
2013-02-14 05:52:00,31.0,31.0,29.92,East,99,0.0,0.0,100,-99.99,,,-99.99,,2013-02-14 10:52:00,
2013-02-14 06:02:00,31.0,31.0,29.93,East,99,0.0,0.0,100,-99.99,,,-99.99,,2013-02-14 11:02:00,
2013-02-14 06:11:00,31.0,31.0,29.93,East,99,0.0,0.0,100,-99.99,,,-99.99,,2013-02-14 11:11:00,
2013-02-14 06:22:00,30.0,30.0,29.94,East,99,0.0,0.0,100,-99.99,,,-99.99,,2013-02-14 11:22:00,
2013-02-14 06:32:00,30.0,30.0,29.94,East,99,0.0,0.0,100,-99.99,,,-99.99,,2013-02-14 11:32:00,
2013-02-14 06:42:00,30.0,30.0,29.94,East,99,0.0,0.0,100,-99.99,,,-99.99,,2013-02-14 11:42:00,
2013-02-14 06:52:00,30.0,30.0,29.95,East,99,0.0,0.0,100,-99.99,,,-99.99,,2013-02-14 11:52:00,
2013-02-14 07:02:00,29.0,29.0,29.95,East,99,0.0,0.0,100,-99.99,,,-99.99,,2013-02-14 12:02:00,
2013-02-14 07:12:00,29.0,29.0,29.95,East,99,0.0,0.0,100,-99.99,,,-99.99,,2013-02-14 12:12:00,
2013-02-14 07:22:00,29.0,29.0,29.96,East,99,0.0,0.0,100,-99.99,,,-99.99,,2013-02-14 12:22:00,
2013-02-14 07:32:00,29.0,29.0,29.97,ENE,68,0.0,0.0,100,-99.99,,,-99.99,,2013-02-14 12:32:00,
2013-02-14 07:42:00,29.0,29.0,29.97,ENE,68,0.0,0.0,100,-99.99,,,-99.99,,2013-02-14 12:42:00,
2013-02-14 07:53:00,29.0,29.0,29.98,East,100,0.0,0.0,100,-99.99,,,-99.99,,2013-02-14 12:53:00,
2013-02-14 08:02:00,30.0,30.0,29.98,East,100,0.0,0.0,100,-99.99,,,-99.99,,2013-02-14 13:02:00,
2013-02-14 08:11:00,30.0,30.0,29.98,East,100,0.0,0.0,100,-99.99,,,-99.99,,2013-02-14 13:11:00,
2013-02-14 08:21:00,31.0,31.0,29.99,East,100,0.0,0.0,100,-99.99,,,-99.99,,2013-02-14 13:21:00,
2013-02-14 08:32:00,32.0,32.0,30.00,East,100,0.0,0.0,100,-99.99,,,-99.99,,2013-02-14 13:32:00,
2013-02-14 08:42:00,32.0,32.0,30.00,East,100,0.0,0.0,100,-99.99,,,-99.99,,2013-02-14 13:42:00,
2013-02-14 08:52:00,34.0,34.0,30.01,East,100,0.0,0.0,100,-99.99,,,-99.99,,2013-02-14 13:52:00,
2013-02-14 09:01:00,36.0,36.0,30.02,East,100,0.0,0.0,100,-99.99,,,-99.99,,2013-02-14 14:01:00,
2013-02-14 09:21:00,38.0,37.0,30.03,SSW,200,5.0,5.0,96,-99.99,,,-99.99,,2013-02-14 14:21:00,
2013-02-14 09:32:00,40.0,37.0,30.03,SW,234,3.0,8.0,90,-99.99,,,-99.99,,2013-02-14 14:32:00,
2013-02-14 09:52:00,40.0,37.0,30.03,WSW,238,3.0,6.0,90,-99.99,,,-99.99,,2013-02-14 14:52:00,
2013-02-14 10:02:00,41.0,38.0,30.03,WSW,242,4.0,5.0,88,-99.99,,,-99.99,,2013-02-14 15:02:00,
2013-02-14 10:21:00,41.0,37.0,30.03,South,186,4.0,7.0,87,-99.99,,,-99.99,,2013-02-14 15:21:00,
2013-02-14 10:32:00,42.0,39.0,30.03,WNW,298,6.0,6.0,90,-99.99,,,-99.99,,2013-02-14 15:32:00,
2013-02-14 10:52:00,43.0,38.0,30.02,SSW,196,3.0,6.0,83,-99.99,,,-99.99,,2013-02-14 15:52:00,
2013-02-14 11:02:00,43.0,39.0,30.02,South,180,5.0,7.0,85,-99.99,,,-99.99,,2013-02-14 16:02:00,
2013-02-14 11:21:00,44.0,39.0,30.02,SSE,158,3.0,6.0,84,-99.99,,,-99.99,,2013-02-14 16:21:00,
2013-02-14 11:32:00,44.0,38.0,30.03,WSW,255,3.0,8.0,80,-99.99,,,-99.99,,2013-02-14 16:32:00,
2013-02-14 11:52:00,45.0,39.0,30.01,SE,128,3.0,8.0,78,-99.99,,,-99.99,,2013-02-14 16:52:00,
2013-02-14 12:01:00,46.0,40.0,30.00,SSE,152,6.0,7.0,79,-99.99,,,-99.99,,2013-02-14 17:01:00,
2013-02-14 12:21:00,46.0,40.0,30.00,North,358,2.0,5.0,79,-99.99,,,-99.99,,2013-02-14 17:21:00,
2013-02-14 12:32:00,47.0,41.0,29.99,West,276,3.0,5.0,79,-99.99,,,-99.99,,2013-02-14 17:32:00,
2013-02-14 12:52:00,47.0,40.0,29.99,South,177,5.0,8.0,77,-99.99,,,-99.99,,2013-02-14 17:52:00,
2013-02-14 13:01:00,48.0,40.0,29.98,East,93,0.0,5.0,74,-99.99,,,-99.99,,2013-02-14 18:01:00,
2013-02-14 13:23:00,49.0,41.0,29.98,ESE,121,0.0,7.0,73,-99.99,,,-99.99,,2013-02-14 18:23:00,
2013-02-14 13:32:00,48.0,39.0,29.98,SE,131,5.0,8.0,71,-99.99,,,-99.99,,2013-02-14 18:32:00,
2013-02-14 13:52:00,49.0,40.0,29.98,NE,39,2.0,11.0,72,-99.99,,,-99.99,,2013-02-14 18:52:00,
2013-02-14 14:02:00,50.0,41.0,29.98,South,169,5.0,9.0,70,-99.99,,,-99.99,,2013-02-14 19:02:00,
2013-02-14 14:22:00,50.0,41.0,29.97,ESE,121,7.0,8.0,71,-99.99,,,-99.99,,2013-02-14 19:22:00,
2013-02-14 14:32:00,50.0,39.0,29.97,South,186,4.0,10.0,66,-99.99,,,-99.99,,2013-02-14 19:32:00,
2013-02-14 14:52:00,51.0,40.0,29.95,SSW,208,0.0,10.0,66,-99.99,,,-99.99,,2013-02-14 19:52:00,
2013-02-14 15:01:00,51.0,41.0,29.94,SE,145,5.0,10.0,69,-99.99,,,-99.99,,2013-02-14 20:01:00,
2013-02-14 15:21:00,51.0,40.0,29.94,SE,135,4.0,9.0,66,-99.99,,,-99.99,,2013-02-14 20:21:00,
2013-02-14 15:32:00,52.0,41.0,29.94,SE,135,1.0,11.0,67,-99.99,,,-99.99,,2013-02-14 20:32:00,
2013-02-14 15:52:00,52.0,41.0,29.94,SSE,160,6.0,13.0,65,-99.99,,,-99.99,,2013-02-14 20:52:00,
2013-02-14 16:02:00,52.0,40.0,29.95,South,187,7.0,10.0,64,-99.99,,,-99.99,,2013-02-14 21:02:00,
2013-02-14 16:22:00,52.0,40.0,29.95,SSE,159,6.0,8.0,64,-99.99,,,-99.99,,2013-02-14 21:22:00,
2013-02-14 16:32:00,53.0,42.0,29.95,East,86,4.0,8.0,66,-99.99,,,-99.99,,2013-02-14 21:32:00,
2013-02-14 16:51:00,52.0,41.0,29.95,SSE,160,5.0,9.0,66,-99.99,,,-99.99,,2013-02-14 21:51:00,
2013-02-14 17:02:00,52.0,42.0,29.95,ESE,117,7.0,11.0,68,-99.99,,,-99.99,,2013-02-14 22:02:00,
2013-02-14 17:21:00,52.0,43.0,29.95,SE,131,0.0,7.0,72,-99.99,,,-99.99,,2013-02-14 22:21:00,
2013-02-14 17:32:00,52.0,42.0,29.94,East,89,4.0,8.0,69,-99.99,,,-99.99,,2013-02-14 22:32:00,
2013-02-14 17:52:00,52.0,43.0,29.95,ESE,108,0.0,3.0,71,-99.99,,,-99.99,,2013-02-14 22:52:00,
2013-02-14 18:01:00,50.0,42.0,29.94,ENE,63,0.0,1.0,74,-99.99,,,-99.99,,2013-02-14 23:01:00,
2013-02-14 18:21:00,49.0,42.0,29.94,NNE,18,0.0,0.0,78,-99.99,,,-99.99,,2013-02-14 23:21:00,
2013-02-14 18:32:00,48.0,42.0,29.95,East,83,0.0,0.0,80,-99.99,,,-99.99,,2013-02-14 23:32:00,
2013-02-14 18:52:00,47.0,41.0,29.95,East,83,0.0,0.0,81,-99.99,,,-99.99,,2013-02-14 23:52:00,
2013-02-14 19:01:00,46.0,41.0,29.95,East,83,0.0,0.0,82,-99.99,,,-99.99,,2013-02-15 00:01:00,
2013-02-14 19:22:00,46.0,41.0,29.96,East,83,0.0,0.0,82,-99.99,,,-99.99,,2013-02-15 00:22:00,
2013-02-14 19:32:00,45.0,41.0,29.95,East,83,0.0,0.0,87,-99.99,,,-99.99,,2013-02-15 00:32:00,
2013-02-14 19:52:00,44.0,41.0,29.96,East,83,0.0,0.0,89,-99.99,,,-99.99,,2013-02-15 00:52:00,
2013-02-14 20:02:00,42.0,40.0,29.96,East,83,0.0,0.0,94,-99.99,,,-99.99,,2013-02-15 01:02:00,
2013-02-14 20:21:00,40.0,39.0,29.96,East,83,0.0,0.0,97,-99.99,,,-99.99,,2013-02-15 01:21:00,
2013-02-14 20:32:00,39.0,38.0,29.96,East,83,0.0,0.0,98,-99.99,,,-99.99,,2013-02-15 01:32:00,
2013-02-14 20:52:00,38.0,37.0,29.96,East,83,0.0,0.0,97,-99.99,,,-99.99,,2013-02-15 01:52:00,
2013-02-14 21:01:00,38.0,37.0,29.96,East,83,0.0,0.0,98,-99.99,,,-99.99,,2013-02-15 02:01:00,
2013-02-14 21:21:00,37.0,37.0,29.97,East,83,0.0,0.0,99,-99.99,,,-99.99,,2013-02-15 02:21:00,
2013-02-14 21:32:00,37.0,37.0,29.98,East,83,0.0,0.0,99,-99.99,,,-99.99,,2013-02-15 02:32:00,
2013-02-14 21:42:00,37.0,37.0,29.98,East,83,0.0,0.0,99,-99.99,,,-99.99,,2013-02-15 02:42:00,
2013-02-14 21:52:00,36.0,36.0,29.98,East,83,0.0,0.0,100,-99.99,,,-99.99,,2013-02-15 02:52:00,
2013-02-14 22:02:00,35.0,35.0,29.98,East,83,0.0,0.0,100,-99.99,,,-99.99,,2013-02-15 03:02:00,
2013-02-14 22:11:00,35.0,35.0,29.98,East,83,0.0,0.0,100,-99.99,,,-99.99,,2013-02-15 03:11:00,
2013-02-14 22:22:00,34.0,34.0,29.99,East,83,0.0,0.0,100,-99.99,,,-99.99,,2013-02-15 03:22:00,
2013-02-14 22:32:00,34.0,34.0,29.99,NE,45,3.0,0.0,100,-99.99,,,-99.99,,2013-02-15 03:32:00,
2013-02-14 22:42:00,34.0,34.0,29.99,NE,45,3.0,0.0,100,-99.99,,,-99.99,,2013-02-15 03:42:00,
2013-02-14 22:52:00,34.0,34.0,29.99,NNE,13,0.0,0.0,100,-99.99,,,-99.99,,2013-02-15 03:52:00,
2013-02-14 23:02:00,35.0,35.0,29.99,NNE,13,0.0,0.0,100,-99.99,,,-99.99,,2013-02-15 04:02:00,
2013-02-14 23:11:00,35.0,35.0,29.99,NNE,13,0.0,0.0,100,-99.99,,,-99.99,,2013-02-15 04:11:00,
2013-02-14 23:21:00,35.0,35.0,29.99,NNE,13,0.0,0.0,100,-99.99,,,-99.99,,2013-02-15 04:21:00,
2013-02-14 23:32:00,35.0,35.0,29.99,NNE,13,0.0,0.0,100,-99.99,,,-99.99,,2013-02-15 04:32:00,
2013-02-14 23:42:00,35.0,35.0,29.99,NNE,13,0.0,0.0,100,-99.99,,,-99.99,,2013-02-15 04:42:00,
2013-02-14 23:52:00,34.0,34.0,29.99,ENE,69,0.0,2.0,100,-99.99,,,-99.99,,2013-02-15 04:52:00,